Regional Weather Roundup
Issued by NWS

Home | Current Version | Previous Version | Graphics & Text | Print | Product List | Glossary On
Versions: 1 2 3 4 5 6 7 8 9 10 11 12 13 14 15 16 17 18 19 20 21 22 23 24 25 26 27 28 29 30 31 32 33 34 35 36 37 38 39 40 41 42 43 44 45 46 47 48 49 50
978
ASUS45 KBOU 211807
RWRCO

WEATHER ROUNDUP FOR COLORADO
NATIONAL WEATHER SERVICE DENVER/BOULDER CO
1200 PM MDT MON AUG 21 2017

NOTE: "FAIR" INDICATES FEW OR NO CLOUDS BELOW 12000 FEET WITH NO
SIGNIFICANT WEATHER AND/OR OBSTRUCTIONS TO VISIBILITY.

COZ001>005-013-030-031-211900-
...NORTHWEST COLORADO...

CITY           SKY/WX    TMP DP  RH WIND       PRES   REMARKS
CRAIG          FAIR      70  41  34 CALM      30.25F
HAYDEN         FAIR      70  39  32 CALM      30.29S
MEEKER         FAIR      73  44  35 CALM      30.25F
RABBIT EARS PA FAIR      54  34  47 CALM      30.57S
STEAMBOAT SPGS FAIR      67  40  37 E3        30.30S
WALDEN         FAIR      63  30  29 N5        30.40S
$$

COZ006>008-011-211900-
...WEST CENTRAL VALLEYS...

CITY           SKY/WX    TMP DP  RH WIND       PRES   REMARKS
GRAND JUNCTION FAIR      80  44  27 W5        30.14F
MONTROSE       FAIR      74  47  38 NW5       30.22F
EAGLE          FAIR      72  40  31 NW3       30.29F
RIFLE          FAIR      76  40  27 CALM      30.18F
DELTA          FAIR      78  42  27 CALM      30.18F
NUCLA          FAIR      73  41  31 N3        30.26F
$$

COZ017>023-064>068-211900-
...SOUTHWEST COLORADO...

CITY           SKY/WX    TMP DP  RH WIND       PRES   REMARKS
DURANGO        FAIR      70  43  37 W8        30.28F
CORTEZ         FAIR      71  50  47 S6        30.24F
PAGOSA SPRINGS FAIR      66  41  39 CALM      30.35S
TELLURIDE      NOT AVBL
WOLF CREEK PAS NOT AVBL
$$

COZ009-010-012-014-032>034-037-058>063-211900-
...CENTRAL COLORADO...

CITY           SKY/WX    TMP DP  RH WIND       PRES   REMARKS
ASPEN          FAIR      69  40  34 NE3       30.33F
BUENA VISTA    FAIR      69  40  34 SE3       30.33S
COPPER MTN     FAIR      54  30  40 CALM      30.67S
BERTHOUD PASS  FAIR      45  41  87 N5        30.70S
COTTONWOOD PAS FAIR      66  32  28 E6        30.48S
GUNNISON       FAIR      64  45  49 SW5       30.34F
KREMMLING      FAIR      68  41  37 W3        30.35F
LEADVILLE      FAIR      60  28  29 N7        30.47F
MONARCH PASS   CLOUDY    52  34  50 E8        30.74S
SALIDA         FAIR      71  41  33 SW3       30.37F
SUNLIGHT       FAIR      54  34  47 W3        30.60S
WILKERSON PASS FAIR      54  32  43 E6        30.62S
$$

COZ069>075-211900-
...SAN LUIS VALLEY/SANGRE DE CRISTO MOUNTAINS...

CITY           SKY/WX    TMP DP  RH WIND       PRES   REMARKS
ALAMOSA        FAIR      68  42  38 W3        30.31F
DEL NORTE      FAIR      66  41  40 CALM      30.35S
LA VETA PASS   NOT AVBL
SAGUACHE       FAIR      64  45  48 S3        30.34F
$$

COZ035-036-038>040-211900-
...NORTHERN COLORADO FRONT RANGE...

CITY           SKY/WX    TMP DP  RH WIND       PRES   REMARKS
DENVER INTL AP FAIR      78  41  26 NE12      30.15S
DMNS CITY PARK   N/A     77  43  30 E2G9      30.14S
AURORA         MOSUNNY   76  41  28 N10       30.18S
FRONT RANGE AP FAIR      77  43  29 NE9G18    30.17R
ERIE MUNI ARPT FAIR      79  37  22 NE5       30.18S
BOULDER MUN AP FAIR      77  45  31 CALM      30.14S
CENTENNIAL     FAIR      77  41  27 NE5       30.19S
BROOMFIELD     MOSUNNY   77  45  31 E5        30.17S
FORT COLLINS   FAIR      76  51  41 SE5       30.14R
LONGMONT       FAIR      77  47  34 CALM      30.15R
$$

COZ041-046-047-076>085-087-088-211900-
...PIKES PEAK/PALMER DIVIDE AND SOUTHERN FOOTHILLS...

CITY           SKY/WX    TMP DP  RH WIND       PRES   REMARKS
COLO. SPRINGS  FAIR      73  49  42 S6        30.21S
A. F. ACADEMY  FAIR      73  42  31 NE10      30.23R
SCHRIEVER AFB  FAIR      74  46  37 SE3       30.21S
CHEYENNE MTN   NOT AVBL
ELLICOTT       NOT AVBL
FALCON         FAIR      71  44  36 E5        30.27S
FORT CARSON    FAIR      75  49  39 SW3       30.17F
LIMON          FAIR      74  49  41 N7        30.14S
MONUMENT HILL  FAIR      68  43  40 N6        30.29S
CANON CITY     SUNNY     79  50  36 NE5       30.14S
WALSENBURG     FAIR      79  45  29 SE6       30.18S
TRINIDAD       PTSUNNY   73  50  44 W6        30.16F
$$

COZ042>045-048>051-090-091-211900-
...NORTHEAST COLORADO...

CITY           SKY/WX    TMP DP  RH WIND       PRES   REMARKS
GREELEY ARPT   FAIR      75  51  43 NE8       30.12S
AKRON          FAIR      75  50  41 N10       30.09S
BURLINGTON     FAIR      77  57  50 W5        30.04S
WRAY           NOT AVBL
YUMA           FAIR      77  48  36 N9        30.03S
STERLING       FAIR      79  52  38 N9        30.03S
HOLYOKE        FAIR      77  68  73 N8        30.01F
FORT MORGAN    FAIR      79  41  25 N12       30.10S
$$

COZ086-089-092>099-211900-
...SOUTHEAST COLORADO...

CITY           SKY/WX    TMP DP  RH WIND       PRES   REMARKS
PUEBLO         FAIR      83  46  27 E3        30.08S
LA JUNTA       FAIR      78  54  43 CALM      30.05F
LAMAR          FAIR      79  59  50 NW5       30.00F
SPRINGFIELD      N/A     76  59  55 SW14      30.08F
$$




USA.gov is the U.S. government's official web portal to all federal, state and local government web resources and services.